Temperature
15 15 15 15 15 15 15 15 15 14 13 13 13 13 13 13 13 13 13 13 13 13 13 13 13 13 13 13 13 13 13 13 13 13 12 12 12 12
15 15 15 15 15 15 15 15 15 15 14 13 13 13 13 13 13 13 13 13 13 13 13 13 13 13 13 12 12 12 12 12 12 12 12 12 12 12
15 15 15 15 15 15 15 15 14 14 14 14 13 13 13 13 13 13 13 13 13 13 12 12 12 12 12 12 12 12 12 12 12 12 12 12 12 12
15 15 15 15 15 15 15 14 14 14 14 14 13 13 13 13 13 13 13 13 13 12 12 12 12 12 12 12 12 12 12 12 12 11 11 11 11 11
15 15 15 15 15 15 15 14 14 14 14 14 13 13 13 13 13 13 13 13 12 12 12 12 12 12 12 11 11 11 11 11 11 11 11 11 11 11
15 15 15 15 15 15 14 14 14 14 14 13 13 13 13 13 13 13 13 12 12 12 12 12 11 11 11 11 11 11 11 11 11 10 10 10 10 10
15 15 15 14 14 14 14 14 14 14 13 13 13 13 13 13 13 12 12 12 12 12 12 11 11 11 11 11 11 10 10 10 10 10 10 10 10 10
15 15 14 14 14 14 14 14 14 14 13 13 13 13 12 12 12 12 12 12 12 11 11 11 11 11 10 10 10 10 10 10 10 10 10 9 9 9
15 14 14 14 14 14 14 13 13 13 13 13 13 12 12 12 12 12 12 11 11 11 11 11 10 10 10 9 9 9 9 9 9 9 9 9 9 9
14 14 14 14 14 14 13 13 13 13 13 12 12 12 12 12 12 11 11 11 10 10 10 10 10 10 9 9 9 9 9 9 9 8 8 8 8 8
14 14 14 14 14 13 13 13 13 12 12 12 12 12 11 11 11 11 11 11 10 10 10 9 9 9 9 9 8 8 8 8 8 8 8 8 8 8
14 14 14 13 13 13 13 13 13 12 12 12 12 11 11 11 11 11 10 10 10 9 9 9 9 8 8 8 8 8 8 8 7 7 7 7 7 7
14 14 13 13 13 13 13 13 12 12 12 11 11 11 11 10 10 10 10 9 9 8 8 8 8 8 7 7 7 7 7 7 7 7 7 6 6 6
14 13 13 13 13 13 12 12 12 12 11 11 11 11 10 10 10 9 9 9 8 8 8 7 7 7 7 7 6 6 6 6 6 6 6 6 5 5
13 13 13 12 12 12 12 12 11 11 11 11 10 10 10 9 9 9 9 8 8 8 7 7 7 7 6 6 6 5 5 5 5 5 5 5 5 5
13 12 12 12 12 12 11 11 11 11 10 10 10 9 9 9 9 8 8 8 8 7 7 7 6 6 6 5 5 5 5 4 4 4 4 4 4 4
13 12 12 12 12 11 11 11 10 10 10 10 9 9 9 9 8 8 7 7 7 7 7 6 6 5 5 5 5 4 4 4 4 3 3 3 4 3
12 12 12 12 11 11 11 10 10 10 10 9 9 9 8 8 8 7 7 6 6 6 6 6 5 5 5 4 4 4 3 3 3 3 3 2 3 3
12 12 12 11 11 11 10 10 10 9 9 9 9 8 8 8 7 7 6 6 6 5 5 5 4 4 4 3 3 3 3 2 2 2 2 2 2 2
12 12 11 11 11 10 10 10 9 9 9 8 8 8 7 7 7 6 6 5 5 5 4 4 4 3 3 3 2 2 2 2 2 1 1 1 1 1
11 11 11 10 10 10 9 9 9 8 8 8 7 7 7 6 6 6 5 5 4 4 4 3 3 3 2 2 2 2 2 1 1 1 1 1 1 1
11 10 10 10 10 9 9 9 8 8 8 7 7 7 6 6 5 5 5 4 4 3 3 3 2 2 2 2 1 1 1 1 1 1 0 -0 -1 -1
10 10 10 9 9 9 8 8 8 7 7 7 6 6 6 5 5 4 4 3 3 3 2 2 2 2 1 1 1 0 0 0 0 0 0 -0 -1 -1
Wind_Speed
3 3 2 2 2 2 3 4 5 3 1 2 2 2 2 1 2 4 4 5 6 6 7 8 9 10 11 12 13 13 13 14 14 14 14 14 14 14
3 4 3 2 3 2 2 2 3 4 2 1 1 1 1 1 2 3 3 4 5 5 5 6 7 8 9 10 11 12 12 13 13 13 13 13 13 12
3 4 3 3 3 3 3 3 3 3 4 0 1 1 2 2 2 3 3 3 4 5 4 4 5 6 7 8 9 10 11 11 12 12 12 12 12 12
3 4 3 3 4 3 3 3 3 3 4 2 1 2 2 1 2 2 3 3 3 4 4 4 5 5 5 6 7 8 9 10 11 11 12 12 12 12
4 4 3 4 3 3 4 3 3 4 3 3 1 1 1 2 2 3 3 3 4 4 4 4 5 6 6 6 6 7 8 8 9 10 10 11 11 11
4 4 4 4 4 4 4 3 4 5 4 4 2 2 1 2 2 2 3 3 2 5 5 5 6 7 8 8 8 7 7 8 8 9 9 10 10 11
4 3 3 4 5 5 4 4 5 4 4 4 2 2 2 2 1 1 2 2 2 3 3 4 4 5 6 7 8 8 9 9 9 9 9 9 9 10
4 3 3 3 5 6 8 7 6 6 4 3 2 1 1 1 1 1 1 2 3 3 2 3 3 2 3 5 8 9 10 10 10 10 10 10 9 9
4 3 3 3 4 3 5 6 5 5 6 5 3 2 2 2 1 1 1 1 0 3 2 3 3 3 3 6 8 9 10 10 11 10 11 11 11 11
3 3 4 3 3 5 5 5 4 3 2 3 3 2 2 2 2 2 1 0 1 3 2 1 3 3 3 5 8 9 10 11 11 10 11 11 11 11
3 3 4 4 5 8 7 5 4 3 6 6 5 4 4 4 5 4 3 3 2 3 2 1 2 3 3 3 7 9 10 10 11 11 11 11 11 10
3 3 4 5 6 8 6 6 4 1 2 4 5 5 6 6 6 4 3 2 1 2 2 1 2 2 3 3 4 7 8 9 10 10 11 11 11 8
3 2 2 6 7 8 7 4 5 3 2 3 3 3 4 4 4 4 4 3 2 1 2 1 1 1 1 3 3 4 6 6 7 8 11 11 10 8
4 3 3 7 8 8 6 5 6 5 3 3 3 2 2 2 2 3 4 3 2 1 1 2 1 1 0 2 3 4 4 6 6 6 9 10 10 10
4 6 6 7 7 6 6 7 6 4 4 3 2 1 1 1 3 4 5 6 6 6 5 4 1 0 1 1 3 3 3 4 5 5 5 5 5 6
4 6 7 7 6 5 5 5 4 3 4 3 1 1 1 2 2 2 2 2 2 3 7 7 4 1 0 2 1 2 2 3 4 5 4 4 7 7
6 4 3 3 3 2 2 2 2 2 3 2 2 1 1 2 1 1 1 2 1 2 3 4 7 5 1 1 1 2 3 3 4 4 4 4 5 7
8 4 3 3 3 3 2 2 1 1 1 2 1 1 1 1 1 1 1 1 1 1 2 2 3 3 3 3 1 2 3 4 4 4 3 4 5 6
6 4 4 4 3 3 3 2 2 1 1 2 2 1 1 1 1 1 1 1 1 1 2 2 2 2 3 5 4 2 2 4 4 4 4 3 5 7
4 4 4 4 3 3 3 2 2 2 2 2 1 1 1 1 1 1 1 1 1 1 2 2 2 2 2 4 3 4 6 3 3 4 5 4 5 8
4 4 4 4 3 3 3 3 2 2 2 1 1 1 1 1 0 0 0 1 1 1 2 3 4 5 2 1 3 4 4 7 6 4 4 4 5 5
5 4 3 4 4 3 3 3 2 2 2 1 1 1 1 1 1 1 1 0 1 1 2 3 3 3 2 2 4 5 6 6 9 9 7 6 4 4
5 4 4 4 3 3 3 3 3 2 2 1 1 1 1 0 0 0 0 0 1 2 2 3 3 2 2 2 3 4 6 7 5 5 6 11 11 12
Wind_Direction
115 112 107 91 93 98 121 137 137 125 344 303 320 323 355 60 66 74 63 60 58 56 52 52 51 50 48 46 44 42 42 42 40 38 36 34 33 33
107 101 91 85 83 83 103 101 116 136 146 268 269 294 349 39 55 62 52 54 47 48 49 52 50 50 49 47 44 41 39 38 36 34 32 30 29 29
100 107 97 95 90 81 87 87 91 111 124 339 347 348 20 27 29 38 39 38 23 30 43 47 43 46 49 47 45 42 38 35 33 31 29 26 25 25
120 111 105 105 89 85 88 86 89 104 127 126 6 4 13 3 5 18 11 16 14 24 32 36 34 33 36 39 41 39 36 32 30 26 24 24 22 22
127 127 126 110 96 92 94 90 86 87 92 117 64 4 1 18 21 15 15 10 21 22 24 22 24 30 31 29 31 30 29 26 24 22 20 21 19 19
123 132 133 130 136 129 111 103 101 90 85 94 73 27 8 358 35 19 0 348 4 20 21 31 31 33 36 34 31 26 21 18 16 16 16 17 16 15
99 108 119 129 137 139 130 126 115 105 98 94 83 47 22 17 354 337 355 337 351 15 8 16 20 24 27 25 24 24 22 19 16 10 8 7 7 7
114 105 103 107 116 118 121 124 127 128 131 122 113 115 269 270 328 30 24 24 348 343 17 351 18 1 3 16 18 20 18 17 16 13 10 6 2 358
137 130 112 103 106 112 106 99 92 104 133 143 144 176 198 221 157 62 60 111 268 320 29 348 352 341 352 13 14 14 13 11 8 9 11 11 9 6
129 137 124 108 117 125 115 99 81 64 95 128 151 176 170 162 161 165 184 139 341 2 47 8 338 327 348 5 16 16 11 7 5 6 8 8 8 9
106 116 126 121 123 125 117 111 89 58 63 80 89 86 77 84 106 89 69 68 14 340 4 40 330 326 335 348 7 11 7 4 4 6 6 6 4 5
93 91 108 122 122 125 126 125 121 110 74 65 57 52 59 65 83 96 122 110 89 330 325 24 342 356 338 329 353 3 6 2 2 2 1 359 0 5
125 122 121 119 117 120 123 131 142 134 105 89 64 44 44 47 49 62 87 121 130 246 306 88 8 3 318 307 325 346 354 351 353 354 353 354 357 3
147 150 136 121 110 109 109 110 111 104 97 87 74 52 43 27 19 44 62 78 94 127 11 87 136 207 276 310 305 319 331 342 351 348 346 349 349 347
147 140 129 121 108 97 95 98 97 99 100 93 84 49 360 19 48 44 39 46 43 34 27 35 73 112 151 236 284 304 315 325 350 346 339 337 332 334
127 118 110 105 95 89 84 84 88 108 116 118 112 45 33 42 38 39 34 27 28 360 10 16 20 71 321 279 274 304 318 320 332 334 328 325 330 333
130 106 97 100 96 86 80 81 84 92 98 97 95 72 54 52 27 26 41 47 48 347 342 357 7 6 337 262 318 315 317 315 313 323 329 324 318 325
127 129 141 150 156 159 147 121 103 117 125 118 106 103 84 59 29 26 40 53 20 332 323 330 350 360 360 350 302 288 312 304 308 318 321 316 312 319
132 148 159 168 168 161 156 149 147 140 126 119 115 114 103 70 53 29 26 22 356 334 329 340 2 17 347 324 315 337 310 309 314 318 312 300 297 305
154 162 170 170 165 163 161 157 147 123 115 119 116 109 112 106 75 27 14 4 336 346 348 349 342 319 283 284 291 307 324 308 310 312 309 304 292 302
170 170 168 164 162 162 159 154 149 145 135 132 128 127 135 124 131 279 282 353 12 359 339 320 303 312 300 336 321 314 315 326 317 305 309 312 315 319
167 167 164 160 160 158 155 151 144 142 143 146 158 172 187 167 196 233 234 286 322 316 308 308 324 348 4 335 314 313 317 324 331 333 331 320 311 310
169 161 157 159 159 156 159 155 152 157 168 172 176 180 152 135 189 220 270 289 313 319 321 326 336 341 329 319 313 313 317 321 323 328 323 330 323 314
Height
1557 1557 1558 1558 1559 1559 1559 1560 1560 1559 1560 1560 1560 1560 1559 1558 1557 1556 1555 1554 1552 1551 1549 1548 1546 1544 1542 1541 1539 1536 1534 1532 1530 1528 1526 1524 1521 1518
1558 1558 1558 1559 1559 1560 1560 1560 1560 1560 1560 1561 1561 1560 1560 1559 1559 1558 1557 1555 1554 1553 1551 1550 1548 1546 1544 1542 1540 1538 1536 1534 1531 1529 1527 1524 1521 1519
1558 1558 1559 1559 1560 1560 1561 1561 1561 1561 1560 1561 1561 1561 1561 1560 1559 1558 1558 1556 1555 1554 1553 1551 1549 1548 1546 1544 1542 1540 1537 1535 1533 1530 1527 1525 1522 1519
1559 1559 1560 1560 1560 1561 1561 1561 1561 1561 1561 1561 1561 1561 1561 1560 1560 1559 1558 1557 1556 1555 1553 1552 1550 1549 1547 1545 1543 1541 1538 1536 1533 1531 1528 1525 1523 1520
1560 1560 1560 1561 1561 1561 1561 1561 1562 1562 1562 1562 1562 1561 1561 1561 1560 1559 1558 1557 1556 1555 1554 1552 1551 1549 1547 1545 1543 1541 1539 1537 1534 1532 1529 1526 1523 1521
1560 1560 1561 1561 1561 1561 1562 1562 1562 1562 1562 1562 1562 1561 1561 1560 1560 1559 1558 1557 1556 1555 1554 1553 1551 1550 1548 1546 1543 1541 1539 1537 1534 1532 1529 1527 1524 1521
1560 1561 1561 1561 1562 1562 1562 1562 1562 1562 1562 1562 1562 1561 1561 1560 1559 1559 1558 1557 1556 1555 1554 1552 1551 1549 1547 1545 1543 1541 1539 1537 1534 1532 1529 1527 1524 1522
1561 1561 1561 1562 1562 1562 1562 1562 1562 1562 1562 1562 1561 1561 1560 1560 1559 1558 1557 1556 1555 1555 1553 1552 1551 1549 1547 1545 1543 1541 1538 1536 1534 1531 1529 1526 1524 1521
1561 1561 1561 1562 1562 1562 1562 1562 1562 1562 1562 1562 1561 1561 1560 1559 1559 1558 1557 1556 1554 1554 1552 1551 1550 1548 1546 1544 1542 1540 1538 1535 1533 1531 1528 1526 1523 1521
1561 1561 1561 1561 1562 1562 1562 1562 1562 1562 1561 1561 1561 1560 1560 1559 1558 1557 1556 1555 1554 1553 1551 1549 1548 1547 1545 1543 1541 1539 1537 1535 1532 1530 1527 1524 1522 1519
1560 1561 1561 1561 1561 1562 1562 1562 1561 1561 1561 1561 1560 1559 1559 1558 1557 1556 1555 1554 1552 1551 1550 1548 1547 1545 1544 1542 1540 1538 1536 1533 1531 1528 1525 1523 1520 1518
1559 1560 1560 1561 1561 1561 1561 1561 1561 1561 1560 1560 1559 1559 1558 1557 1556 1555 1553 1552 1551 1550 1549 1547 1545 1544 1542 1540 1538 1536 1534 1532 1529 1526 1524 1521 1518 1515
1558 1559 1560 1560 1560 1560 1560 1560 1560 1560 1559 1559 1558 1557 1556 1555 1554 1553 1552 1551 1550 1549 1548 1546 1544 1542 1540 1538 1536 1534 1532 1529 1527 1524 1521 1519 1516 1513
1557 1558 1559 1559 1559 1559 1559 1559 1559 1558 1558 1557 1556 1556 1555 1554 1553 1552 1551 1550 1549 1548 1546 1545 1542 1540 1538 1536 1534 1532 1530 1527 1524 1521 1519 1516 1513 1511
1556 1557 1557 1558 1558 1558 1558 1557 1557 1557 1556 1555 1555 1554 1554 1553 1552 1551 1550 1549 1547 1546 1544 1543 1541 1539 1537 1534 1532 1529 1526 1524 1521 1518 1516 1513 1510 1507
1554 1555 1556 1556 1556 1556 1556 1556 1555 1555 1554 1554 1553 1553 1552 1551 1550 1549 1548 1546 1545 1544 1542 1541 1538 1536 1534 1532 1529 1526 1524 1521 1518 1515 1512 1510 1507 1504
1552 1553 1553 1554 1554 1554 1554 1554 1554 1553 1553 1552 1552 1551 1550 1549 1548 1547 1545 1544 1542 1541 1539 1538 1536 1534 1531 1529 1526 1523 1521 1518 1515 1512 1509 1506 1503 1501
1549 1550 1550 1551 1551 1551 1551 1551 1551 1551 1551 1550 1549 1549 1548 1547 1546 1544 1543 1541 1540 1538 1536 1534 1532 1530 1528 1525 1524 1521 1518 1515 1512 1509 1506 1502 1499 1497
1546 1546 1547 1548 1548 1549 1549 1549 1549 1549 1549 1548 1547 1546 1545 1544 1543 1542 1540 1539 1537 1535 1533 1531 1529 1527 1524 1522 1520 1518 1515 1511 1508 1505 1502 1499 1496 1493
1542 1543 1544 1545 1546 1546 1546 1547 1547 1546 1546 1545 1544 1544 1543 1542 1540 1539 1538 1536 1534 1532 1531 1529 1527 1524 1522 1520 1517 1514 1512 1509 1505 1502 1499 1496 1493 1490
1539 1540 1541 1542 1543 1543 1544 1544 1544 1544 1543 1542 1542 1541 1540 1539 1537 1536 1535 1533 1532 1530 1527 1526 1524 1522 1519 1517 1514 1511 1509 1506 1503 1500 1496 1492 1488 1485
1536 1537 1538 1539 1539 1540 1540 1541 1540 1540 1540 1539 1538 1537 1536 1535 1534 1533 1531 1530 1528 1527 1525 1523 1521 1519 1516 1513 1510 1507 1505 1502 1500 1497 1494 1490 1487 1482
1533 1534 1535 1536 1536 1537 1537 1537 1537 1537 1536 1536 1535 1534 1533 1532 1531 1530 1528 1527 1525 1523 1521 1519 1517 1515 1512 1510 1507 1504 1501 1498 1495 1492 1490 1487 1485 1481